Wind_Speed
6 5 4 2 2 3 3 3 4 4 2 4 3 4 4 5 3 1 2 2 2 5 2 2 4 5 10 12 14 15 14 12 12 12 12 12 11 10 9 9 9 7 6 5 4 4 5 6 8 10 11 13 15 18 21 23 23 22 21 20 21 21 20 19 18 15 14 12 9 10 11 10 10 7 9 13 21 29 30 34 36 35 35 32 29 28
6 4 3 4 5 5 4 2 2 1 1 3 4 5 4 4 2 2 2 2 3 5 2 3 5 5 8 11 13 15 13 13 14 14 13 12 11 10 9 9 8 6 5 4 3 2 3 5 7 8 10 13 14 16 19 22 23 21 20 20 20 19 19 19 18 16 14 12 10 10 12 11 9 6 6 10 20 31 30 31 35 33 34 34 29 26
5 1 6 6 5 4 3 2 1 0 2 3 4 5 4 3 1 2 4 4 3 5 2 4 5 4 7 9 11 14 13 12 14 14 13 13 12 10 10 9 7 6 4 3 1 1 2 4 6 8 10 13 14 14 17 21 22 21 20 21 20 19 18 18 17 17 13 11 10 10 11 10 9 8 5 5 14 29 31 30 35 34 34 38 31 26
3 4 7 4 2 3 4 3 1 2 3 3 3 5 4 2 4 3 4 4 4 3 3 5 5 3 6 7 9 12 13 12 13 13 13 12 11 11 10 9 8 7 5 3 1 1 2 4 6 8 10 12 13 13 16 19 20 20 20 21 20 18 18 17 17 16 14 11 9 7 8 9 8 9 6 5 9 23 31 31 34 32 31 37 34 30
7 7 4 1 2 2 3 3 1 4 3 2 2 6 6 4 5 4 1 3 4 3 4 5 5 4 7 8 8 10 11 11 13 14 13 12 10 10 10 9 8 7 6 4 2 1 2 4 5 7 9 11 12 13 15 18 19 19 20 20 19 17 17 17 16 16 15 13 11 9 8 8 6 6 5 5 7 15 26 30 31 30 31 35 32 28
8 6 1 2 3 2 2 1 2 5 5 2 1 3 7 6 6 5 3 4 5 4 4 5 5 4 7 9 8 9 10 11 13 15 13 12 11 11 10 9 8 7 6 4 2 2 2 3 5 7 9 11 12 13 14 16 18 18 19 19 18 17 16 16 16 15 15 13 13 12 10 9 6 4 5 5 7 10 21 29 29 30 33 33 30 26
5 4 1 2 3 2 2 1 4 4 7 2 3 2 5 6 6 6 6 6 5 2 4 5 6 3 5 8 9 9 11 12 13 12 10 10 12 12 11 10 8 7 6 4 3 3 2 3 5 7 9 11 12 13 14 15 16 18 19 19 18 17 16 16 16 14 13 12 11 12 11 10 8 4 4 5 6 9 21 28 29 31 32 31 29 27
4 5 3 1 2 3 2 2 4 4 7 3 5 3 5 6 7 7 6 7 5 2 3 7 6 6 4 5 8 9 10 11 10 9 9 13 14 13 11 10 9 7 6 5 4 3 2 3 5 7 9 11 12 13 15 15 16 17 18 18 17 17 16 15 15 14 13 12 10 11 10 9 9 7 4 3 4 8 16 20 24 28 30 30 29 29
3 3 2 0 4 3 2 5 5 5 5 4 5 3 4 5 7 6 6 7 4 3 5 6 4 7 5 3 7 7 10 12 12 11 12 15 15 13 12 11 9 8 7 5 4 3 2 3 5 7 9 10 11 13 15 15 16 17 17 17 17 17 16 15 15 14 13 12 10 9 10 9 8 8 6 2 4 8 11 14 19 25 29 30 28 26
4 4 4 3 3 2 6 5 3 4 4 4 2 4 3 4 5 5 6 6 3 5 7 2 2 6 5 2 5 6 9 10 10 10 13 15 15 14 13 11 10 8 7 6 5 3 3 3 5 6 8 10 12 13 15 15 16 16 16 17 17 16 16 15 15 14 13 12 10 8 9 9 8 8 7 2 3 5 9 14 17 21 26 29 28 26
6 3 2 3 4 3 3 2 2 3 3 1 4 5 4 4 3 3 4 3 5 6 4 2 3 4 5 1 2 3 3 5 5 6 8 12 13 12 12 12 10 8 7 6 5 4 2 3 4 7 9 10 12 14 15 17 17 16 16 17 17 16 16 14 14 13 12 11 10 8 8 8 8 7 7 5 3 1 5 11 13 15 22 29 34 34
6 4 3 4 4 2 2 3 3 3 4 4 4 4 4 4 2 4 3 3 6 4 2 3 2 5 6 2 0 2 1 3 4 4 5 9 11 12 12 10 9 7 5 5 4 3 2 3 5 7 9 11 12 14 16 17 17 16 16 17 17 17 17 14 13 13 11 10 9 9 7 6 7 6 5 5 4 2 3 7 11 14 19 25 33 37
5 4 4 4 3 3 4 5 5 6 5 4 4 3 4 4 2 4 3 3 5 1 4 2 1 4 5 1 1 1 3 5 5 5 5 8 11 12 10 7 6 5 5 5 4 3 3 4 5 7 9 11 13 15 16 16 16 17 16 16 17 17 17 14 12 11 10 10 9 8 7 5 5 5 5 5 3 4 3 6 8 11 15 18 26 33
3 5 5 5 3 3 5 5 2 1 2 4 4 4 4 4 3 4 4 3 3 1 3 1 2 4 3 1 2 1 2 4 5 6 6 8 11 11 10 7 6 6 6 6 4 3 3 3 5 7 9 11 13 14 15 16 16 17 16 16 17 17 15 13 11 10 9 8 8 7 6 5 4 4 4 4 3 3 4 5 5 8 12 14 18 23
3 2 2 1 1 3 4 4 5 5 4 3 3 5 5 3 4 5 4 4 4 2 1 2 2 4 2 1 2 2 3 3 5 6 7 9 10 10 9 7 6 6 6 6 4 3 3 3 5 6 8 11 13 14 15 16 16 17 17 16 16 16 15 13 11 10 9 8 8 7 6 5 4 3 3 3 3 3 2 4 5 7 11 14 16 18
6 1 5 5 3 3 4 4 5 6 3 1 2 5 3 3 3 4 3 4 5 5 1 2 2 3 1 2 3 3 4 5 5 7 9 10 10 9 8 7 7 7 7 6 4 3 2 3 4 6 9 11 12 13 14 15 16 17 17 16 15 15 14 13 11 10 9 8 8 7 7 5 4 4 3 3 4 3 2 2 4 6 8 12 17 18
5 1 7 5 4 5 5 5 4 5 3 1 3 2 3 3 5 4 1 1 3 5 2 0 3 3 1 4 6 5 5 6 6 8 10 11 11 9 8 7 7 6 6 5 4 3 3 3 4 6 9 11 12 13 13 14 15 16 16 16 16 15 14 12 11 10 9 8 8 7 7 6 5 4 4 5 5 5 4 3 4 6 7 9 14 18
4 1 6 3 2 6 3 2 4 4 5 4 3 4 2 2 3 3 3 1 3 4 1 1 5 5 2 1 5 7 6 7 7 8 10 11 11 10 9 8 7 5 5 4 4 4 3 3 4 6 9 11 12 13 12 13 15 16 16 16 15 15 14 12 11 10 9 9 8 7 7 7 6 4 5 5 6 6 6 5 4 6 8 9 11 15
3 3 5 4 2 5 3 3 3 4 3 3 2 2 2 3 1 1 2 3 4 4 1 0 4 4 2 1 3 6 7 7 8 9 9 10 11 10 9 9 8 6 5 5 5 4 3 3 4 6 9 11 12 12 12 13 14 15 15 16 15 15 14 12 11 10 9 8 8 7 7 7 6 5 5 5 6 7 7 7 6 6 8 10 11 13
1 3 2 5 2 2 4 5 3 3 4 2 3 2 1 3 3 2 2 3 4 5 3 2 3 1 3 3 2 3 6 8 8 8 8 9 10 9 8 7 6 6 6 5 5 4 3 3 4 6 8 11 12 12 12 13 14 14 15 16 16 15 13 12 11 9 8 7 7 7 7 7 7 6 5 5 6 6 7 8 8 8 9 11 11 12
1 2 1 4 4 3 3 1 2 2 1 1 2 0 1 0 2 2 1 1 3 5 4 3 4 2 5 4 4 2 2 6 7 7 8 9 10 8 6 6 4 4 4 4 4 4 3 3 4 6 9 10 12 12 12 13 14 15 16 17 16 15 14 12 11 10 9 8 7 8 8 7 7 7 6 5 6 6 6 7 8 9 10 11 13 14
2 2 3 1 3 3 1 5 4 4 3 4 3 3 3 2 3 4 1 1 1 4 4 4 5 3 5 4 4 3 2 3 6 7 7 8 8 7 6 5 4 3 4 4 4 4 3 3 5 7 9 11 12 13 13 14 15 15 16 17 16 15 14 12 11 10 9 9 8 9 8 7 6 6 6 5 5 5 5 6 6 8 9 10 12 14
2 3 4 3 2 1 5 6 3 1 1 4 3 3 3 2 3 5 3 2 2 2 2 4 5 2 5 4 3 2 3 3 5 6 7 8 7 7 7 5 4 4 4 4 4 4 3 4 5 7 8 11 13 13 13 14 15 15 16 16 16 14 13 12 11 10 9 8 9 9 8 7 6 6 6 5 4 4 4 4 5 6 6 7 9 11
2 3 3 2 1 2 4 5 3 3 3 5 3 1 2 3 3 5 5 4 4 3 2 4 4 2 5 3 1 1 3 4 5 6 7 7 6 7 7 6 5 4 5 5 5 4 3 3 4 6 9 11 13 13 13 14 15 15 16 15 15 13 12 12 11 10 9 9 9 8 7 6 5 5 5 4 3 3 3 3 3 4 4 5 6 7
2 2 3 4 2 2 4 4 4 4 4 5 2 0 1 1 2 4 3 3 4 3 2 5 5 2 4 3 1 1 3 5 6 8 8 8 7 7 7 6 5 5 5 6 5 4 3 3 4 6 9 11 13 13 13 14 14 15 15 15 14 13 12 11 10 10 9 9 8 7 6 6 5 4 3 3 2 3 3 3 4 4 4 5 5 6
2 2 2 4 4 2 2 2 1 1 2 3 2 2 3 3 3 3 4 4 4 1 1 6 6 4 4 2 0 1 2 4 5 7 9 9 8 8 7 6 6 5 6 6 5 4 4 3 4 6 9 11 13 13 12 13 14 14 14 15 15 14 12 10 10 10 9 8 7 6 5 5 5 3 2 2 2 3 3 4 4 4 5 6 6 7
3 3 2 5 5 4 5 5 4 3 4 4 3 3 3 4 4 4 5 5 4 3 4 5 3 5 8 6 3 2 2 3 4 6 8 9 9 8 8 7 6 6 6 6 6 5 4 3 4 7 10 12 12 12 11 12 12 13 14 15 15 14 13 10 10 10 9 8 7 6 5 4 4 4 2 1 1 2 3 4 4 4 5 6 7 8
4 3 1 3 5 5 6 6 4 4 5 5 4 3 3 4 4 4 7 4 4 5 6 3 3 4 8 8 5 3 2 3 4 6 7 7 8 7 7 7 7 7 6 6 6 5 4 3 4 7 10 12 11 10 10 10 11 12 13 15 15 15 14 11 9 9 9 8 7 6 4 3 3 4 3 2 2 3 4 5 5 6 6 6 7 7
5 4 1 3 6 6 7 7 6 6 6 6 6 5 5 5 6 7 8 5 2 6 6 6 6 8 8 8 7 4 3 3 4 5 5 6 6 6 7 7 7 7 6 6 6 5 3 3 5 8 10 11 10 10 9 9 10 11 13 14 15 16 15 12 9 8 8 8 7 6 4 3 4 4 3 2 3 4 6 6 6 6 6 6 7 8
4 3 1 5 8 6 6 7 6 7 8 7 9 7 5 6 7 7 6 4 2 6 9 8 10 12 11 9 7 3 2 3 3 4 5 6 7 7 7 7 7 6 6 6 5 4 3 3 5 9 10 10 10 9 8 8 9 11 12 14 14 15 15 13 10 8 8 8 7 4 3 4 4 4 4 3 4 6 7 7 6 5 5 6 7 6
3 2 1 4 8 6 5 6 6 6 8 8 9 5 4 4 4 4 3 2 2 5 7 6 9 11 8 4 2 2 3 4 5 6 7 7 7 7 7 7 7 7 6 5 5 4 3 4 6 9 10 9 8 8 7 8 9 10 12 13 14 15 15 13 10 9 8 8 7 4 3 4 4 4 5 5 6 7 8 7 6 5 5 7 7 4
3 3 2 4 7 5 2 5 6 7 9 9 8 5 4 4 2 3 4 4 5 3 2 3 7 7 1 2 1 3 5 6 7 6 7 7 6 6 7 7 7 7 5 5 4 4 4 5 6 8 9 8 7 7 7 7 9 10 11 13 13 14 14 13 11 11 9 7 7 5 4 4 4 4 5 6 6 8 8 7 6 5 5 5 5 3
4 5 4 4 6 5 2 4 7 9 9 6 4 4 5 5 3 2 3 6 8 6 3 4 5 4 3 1 2 3 5 6 6 5 5 6 5 6 6 6 6 6 4 4 3 4 4 4 5 7 7 7 7 7 6 7 8 10 11 12 13 13 14 13 12 11 9 6 6 5 4 3 3 4 5 6 8 8 8 7 6 5 4 3 4 4
5 6 5 4 5 7 5 5 8 9 6 2 1 1 2 4 5 4 5 7 10 10 7 8 7 5 2 3 4 3 3 4 4 4 4 5 6 6 5 5 5 4 3 4 4 3 3 3 4 6 6 6 7 6 6 7 8 10 11 11 11 12 13 12 12 11 8 7 5 4 2 1 3 5 6 7 8 7 7 7 6 4 2 2 4 5
6 7 5 4 5 7 6 6 7 6 4 3 1 0 1 3 4 5 8 9 9 12 13 12 11 10 7 6 5 4 3 2 3 4 4 5 5 5 5 5 4 4 4 4 4 4 2 1 2 5 6 6 6 6 6 6 7 9 10 10 10 11 12 12 12 11 8 7 6 3 2 3 4 5 6 6 7 7 7 7 6 3 2 2 4 5
7 6 5 4 5 6 5 4 4 5 6 4 1 2 1 2 4 5 9 8 6 9 12 11 11 11 8 6 5 4 2 2 5 7 6 5 5 5 5 4 4 5 5 5 4 4 3 2 1 4 5 6 6 5 5 6 7 9 10 9 9 10 11 11 11 10 8 7 7 6 4 3 3 4 4 5 7 7 7 6 6 4 2 2 3 4
8 7 6 5 5 5 6 6 5 7 7 2 3 3 2 2 1 3 6 5 2 4 7 8 9 10 7 4 4 3 3 3 7 6 6 5 3 4 5 3 4 6 6 5 5 4 4 3 1 2 4 6 6 5 5 6 7 8 9 8 8 9 10 10 10 10 9 7 7 7 6 5 5 5 6 7 7 7 7 7 6 5 4 3 3 3
8 7 6 5 4 4 6 6 5 7 6 1 3 3 2 2 3 3 7 5 0 1 3 5 7 8 5 1 4 5 4 4 6 1 8 6 1 2 3 4 6 7 7 6 6 5 5 4 2 2 4 5 5 5 6 6 7 8 9 7 7 8 8 9 10 9 9 8 6 6 6 5 5 6 7 7 7 8 8 8 7 6 5 5 4 4
6 6 6 6 5 5 6 6 5 5 4 3 4 2 1 1 2 4 6 2 3 2 1 3 5 5 2 2 5 6 4 4 4 5 11 7 2 0 2 4 7 8 7 7 6 6 6 4 2 1 3 4 4 5 6 7 7 8 8 7 7 8 8 8 9 9 8 7 6 6 5 5 5 5 6 7 7 8 8 8 7 7 6 5 5 5
5 4 5 6 6 6 6 6 5 5 3 3 4 3 2 1 2 5 5 1 3 3 1 1 3 2 1 3 6 6 4 4 2 7 9 4 2 1 2 5 7 8 7 7 7 6 6 4 2 1 2 4 4 4 5 6 7 8 8 6 6 8 8 7 8 8 7 7 6 6 5 5 5 5 6 6 6 7 8 8 7 7 7 6 5 5
4 3 5 6 7 6 6 6 6 5 3 5 6 3 2 3 3 4 4 3 4 4 1 0 2 0 3 5 5 4 3 1 3 5 4 2 2 1 2 5 7 7 7 8 8 7 6 5 3 0 2 3 4 4 5 6 6 7 7 6 6 7 7 7 7 7 7 7 6 6 5 5 5 5 5 6 6 7 7 8 8 8 7 6 5 5
4 3 4 5 5 4 4 4 6 4 2 4 4 0 4 4 3 3 5 5 5 4 1 1 1 2 4 5 5 4 1 2 2 1 1 1 0 1 3 6 7 8 8 8 8 7 6 5 4 2 2 3 4 3 4 5 6 7 7 5 5 7 7 7 7 7 7 7 6 6 6 5 5 5 5 5 7 8 8 8 8 8 8 6 5 5
3 4 4 4 3 3 3 5 6 3 1 1 3 3 4 3 3 7 8 7 5 5 4 3 2 3 5 5 5 5 3 2 3 4 3 3 2 2 4 6 8 8 8 8 8 7 6 4 3 3 3 3 3 3 4 4 5 6 6 4 4 5 6 7 7 7 6 7 7 7 6 6 5 5 5 6 8 9 9 9 8 9 9 8 7 6
2 4 5 2 2 3 4 4 2 2 2 2 4 3 3 6 9 11 12 9 7 7 7 6 5 4 6 5 5 6 6 5 5 5 4 4 4 4 5 6 7 8 7 7 7 6 5 4 4 4 4 4 3 3 3 3 4 5 5 3 3 4 5 6 6 7 7 8 8 8 7 7 6 6 6 7 8 9 10 10 10 9 9 9 8 8
1 2 4 4 2 4 6 5 4 5 5 3 6 7 9 11 13 14 14 12 11 10 9 8 7 6 7 7 6 7 7 7 7 6 6 5 5 6 6 6 7 8 7 7 7 7 5 4 4 4 4 4 4 4 4 3 3 4 4 2 1 2 4 5 5 7 7 7 8 8 7 6 6 7 7 6 7 9 11 11 12 11 11 10 9 9
1 1 3 3 2 4 8 9 9 10 9 7 7 9 11 13 13 12 12 12 13 12 11 10 9 7 8 8 8 8 8 7 7 7 6 6 6 6 7 7 7 7 7 7 7 7 6 5 4 4 4 4 5 4 4 4 3 3 3 2 0 1 2 3 4 6 6 6 7 7 7 6 6 6 7 7 7 9 10 11 12 13 12 12 11 10
2 3 4 5 3 3 5 6 6 7 9 9 11 12 12 12 12 10 10 12 13 12 13 11 9 8 8 9 9 8 7 7 7 6 6 6 7 7 8 7 8 8 8 7 7 8 7 6 5 5 4 4 4 4 4 4 3 2 2 1 1 1 0 2 3 4 5 5 5 6 6 6 6 7 7 8 8 8 8 10 11 13 14 14 13 12
2 2 4 6 6 6 8 8 9 10 11 13 13 12 10 10 10 10 11 14 14 13 13 13 11 9 9 10 10 9 8 8 8 7 7 7 7 7 8 8 8 8 8 8 8 8 8 7 6 5 4 4 3 3 3 3 3 3 2 1 2 2 1 1 2 3 4 4 4 4 4 5 7 6 6 7 8 8 9 9 9 11 13 14 14 14
1 2 6 8 7 9 10 11 11 10 10 11 10 8 8 9 10 10 12 14 15 14 13 14 15 13 11 10 10 10 9 8 8 8 7 7 7 8 8 8 8 8 8 8 8 8 9 9 7 6 5 4 4 4 3 3 4 4 3 2 2 3 2 2 1 2 3 3 3 3 3 4 5 5 5 6 7 8 10 12 11 9 11 12 13 14
6 6 8 8 8 8 7 8 8 7 7 9 10 9 10 11 11 12 14 15 15 14 12 12 16 16 15 12 11 10 10 9 9 9 8 7 7 8 8 8 8 8 8 8 9 9 9 9 8 7 7 5 5 5 4 4 4 4 3 3 3 3 3 3 2 2 2 2 2 3 3 3 3 4 4 4 5 5 8 12 13 12 11 11 12 13
9 9 9 8 9 10 11 13 13 11 11 13 14 14 13 12 11 14 16 16 15 14 12 11 15 17 17 15 13 12 11 9 10 10 9 8 7 8 8 8 8 8 8 9 9 9 10 10 10 9 8 7 6 6 5 5 4 4 4 3 3 3 3 3 3 3 2 1 2 3 3 2 2 3 3 3 4 4 4 7 10 13 13 13 13 13
Wind_Direction
217 205 186 174 125 97 72 22 13 38 345 294 277 271 276 283 282 97 118 130 266 271 266 277 263 204 177 172 170 171 174 172 163 160 157 152 148 143 134 122 116 111 106 102 90 76 60 45 37 34 29 23 18 15 16 16 15 14 12 9 5 4 4 1 359 358 359 358 346 338 334 325 323 298 258 243 215 205 207 209 209 206 200 202 206 206
225 233 98 61 58 69 73 54 24 56 281 275 271 273 265 263 275 97 148 162 236 263 255 243 242 188 173 172 170 173 176 176 174 173 168 159 153 149 142 131 125 120 116 112 96 77 49 39 32 28 24 19 16 12 13 14 13 12 9 7 4 3 4 1 359 357 355 358 355 342 333 326 330 328 279 248 216 204 204 206 206 202 199 200 203 204
210 182 85 72 75 100 102 94 107 213 256 263 274 281 274 279 305 156 174 176 217 254 250 232 235 175 164 173 176 181 184 184 182 181 174 164 159 157 150 140 136 134 130 140 137 68 35 30 25 24 19 15 14 8 9 10 10 9 5 4 2 1 3 0 356 356 352 355 359 343 330 324 316 320 305 254 221 204 200 204 206 204 202 201 204 206
184 102 91 86 115 134 116 114 195 233 235 262 297 284 284 329 301 246 172 168 203 251 258 232 232 175 165 178 184 190 192 186 184 184 178 171 170 167 161 156 153 152 157 176 186 349 7 14 17 19 16 14 11 4 4 6 6 4 1 359 360 359 1 360 354 354 355 352 356 349 333 329 315 315 307 269 237 206 201 202 203 205 202 202 208 211
93 91 85 121 211 187 148 141 255 277 257 244 293 294 307 326 294 282 164 178 198 221 239 229 236 209 187 190 186 187 191 185 182 183 180 180 177 169 165 166 166 163 172 186 197 280 339 1 11 13 13 11 5 360 0 3 2 359 357 356 357 358 358 359 355 353 357 352 353 1 351 344 331 319 312 261 235 211 208 203 200 204 201 199 206 209
86 83 50 200 174 179 217 118 28 314 294 266 150 321 322 315 292 274 240 230 235 233 208 216 259 232 186 197 196 185 185 189 192 188 186 187 180 175 176 177 178 178 180 186 204 258 315 347 2 6 7 7 2 357 355 356 356 355 355 355 355 357 356 357 358 356 357 353 352 1 359 357 351 322 326 272 229 198 194 196 197 202 200 198 202 205
86 100 233 199 146 159 245 93 59 318 291 301 76 19 307 290 279 264 244 241 262 284 171 206 267 263 183 197 198 193 195 198 199 189 192 206 196 186 186 184 186 186 183 188 212 245 295 333 355 1 1 3 358 353 352 350 351 351 352 354 354 355 354 355 359 359 359 355 351 357 357 357 358 332 311 288 255 189 178 186 193 195 196 198 201 206
98 132 164 154 185 224 249 95 66 319 292 2 50 353 283 270 266 262 252 247 270 335 184 212 258 277 252 197 179 196 209 200 191 177 189 216 213 195 188 187 187 187 186 193 214 236 283 328 351 357 358 0 353 350 352 348 346 347 349 353 353 353 352 352 357 360 360 358 351 353 355 353 357 351 314 277 259 207 180 176 185 189 194 201 205 207
99 113 122 225 240 247 37 60 47 322 300 32 32 306 280 276 271 266 258 255 272 291 246 215 221 264 271 165 164 202 219 208 197 189 198 215 217 201 190 188 188 186 188 199 215 234 275 321 346 353 356 357 352 349 350 347 344 344 347 350 350 352 350 348 352 357 357 358 355 352 353 350 351 354 343 269 232 228 198 172 175 185 192 198 200 201
94 51 37 331 289 39 67 69 35 327 325 35 341 255 238 249 257 254 256 263 257 263 268 221 157 270 279 156 177 208 226 227 209 198 206 215 215 201 189 185 184 185 188 202 216 232 271 314 341 350 355 354 351 348 346 346 345 345 346 347 348 349 347 345 347 351 352 355 357 352 351 353 348 350 354 324 236 230 212 193 175 175 187 194 195 199
108 90 61 25 6 27 64 99 74 341 325 323 238 240 226 226 240 245 254 279 262 249 259 109 118 270 279 241 207 196 232 255 222 196 196 200 200 190 185 184 181 183 188 201 217 229 269 320 339 346 351 349 346 346 346 348 348 348 346 344 346 346 342 343 344 345 348 348 350 352 349 351 350 349 357 339 283 211 198 206 188 174 186 194 197 201
149 161 128 72 36 357 250 214 177 191 234 234 245 269 260 234 219 238 221 222 257 257 87 87 143 242 258 269 216 121 129 248 228 215 190 184 186 181 180 181 178 183 192 205 225 239 286 322 334 342 346 344 343 346 347 349 349 347 345 342 343 343 339 339 341 340 341 343 342 346 347 346 350 346 352 350 295 252 148 188 200 190 186 190 196 202
176 139 119 116 75 5 285 253 201 186 213 252 271 287 276 261 241 255 248 232 261 299 76 42 294 250 261 303 61 159 203 212 217 232 212 187 181 170 165 169 175 188 206 219 238 260 294 318 331 339 342 341 343 346 347 348 348 346 345 343 342 341 337 333 338 339 337 339 338 339 342 337 346 344 338 354 328 268 209 181 196 199 190 186 193 202
170 139 154 170 126 22 319 303 280 221 299 321 322 314 298 297 298 277 267 273 289 53 88 18 292 265 260 88 51 343 202 191 199 217 210 181 171 164 163 176 189 200 216 228 241 263 291 316 331 336 339 341 343 346 347 347 346 346 344 344 343 341 338 333 336 341 336 335 335 335 340 332 332 342 328 331 341 308 245 212 204 208 207 197 191 197
287 176 124 65 59 26 3 5 354 326 309 344 342 302 296 317 314 297 293 308 317 333 115 159 252 297 326 89 69 62 123 159 185 190 178 166 165 166 171 183 200 213 221 230 241 255 280 313 329 334 337 342 344 345 346 346 344 345 343 340 340 340 341 341 338 339 336 333 332 332 336 333 318 318 317 309 313 324 284 239 216 207 212 211 204 204
289 276 76 53 46 38 42 53 3 312 278 22 304 276 301 351 318 296 318 345 327 304 269 176 247 323 359 160 139 120 142 153 168 174 170 168 167 171 181 193 212 223 224 229 240 248 263 310 328 337 341 344 345 343 344 345 344 344 342 338 338 338 339 340 337 334 332 330 329 328 328 330 319 300 294 285 280 286 298 278 230 216 208 210 215 216
291 97 104 100 94 71 44 55 32 337 322 296 277 308 21 352 303 282 277 107 264 274 287 314 293 296 185 166 154 160 169 159 166 176 175 174 174 186 204 211 218 226 229 232 239 246 256 308 325 337 345 344 344 343 343 345 344 342 341 338 338 338 336 337 337 332 329 326 322 322 321 322 317 298 282 270 268 270 269 273 251 236 221 210 218 221
310 299 128 151 135 100 63 48 79 30 339 310 321 22 28 257 262 271 276 246 249 271 293 2 305 300 294 165 160 180 191 178 180 184 184 186 190 203 214 212 217 229 236 235 238 248 258 301 326 338 344 343 343 343 342 345 345 342 341 340 338 338 338 336 335 330 326 322 317 316 315 314 312 295 279 265 259 262 260 259 259 250 237 222 216 219
296 282 140 171 202 126 156 233 149 108 29 353 32 39 291 268 260 225 272 305 297 298 313 327 300 294 307 35 175 195 197 190 190 193 197 199 200 207 209 203 211 221 225 231 237 244 258 295 329 339 341 342 344 344 343 343 344 343 342 343 340 337 338 336 333 329 325 320 315 315 314 313 313 298 286 275 259 256 256 254 252 250 247 237 225 220
276 294 136 154 168 162 201 235 236 147 123 143 166 162 304 324 328 324 316 319 307 302 317 323 295 307 59 23 329 215 195 194 198 202 205 204 202 207 208 206 210 213 220 236 238 235 254 294 327 337 339 344 345 343 345 344 343 342 342 344 341 336 337 337 334 332 331 326 317 315 317 315 310 301 292 285 272 259 254 253 251 247 245 241 236 230
231 290 315 138 150 218 224 211 336 10 66 233 221 274 17 21 289 287 268 326 312 304 323 327 305 22 61 23 348 344 214 203 203 209 208 204 204 205 205 209 214 214 222 230 229 235 259 296 323 335 339 344 344 345 346 344 343 342 341 343 342 338 336 335 334 334 333 331 323 318 319 316 312 308 299 288 280 271 262 260 255 250 246 239 237 235
296 292 296 252 192 225 94 64 25 3 341 321 326 335 346 349 295 284 246 105 310 303 330 321 305 15 71 43 5 357 305 238 219 220 214 205 204 206 207 214 223 230 231 224 224 241 260 294 319 332 340 343 344 345 346 345 343 342 340 341 340 337 335 333 331 331 329 328 327 324 323 323 323 316 309 299 289 280 270 265 259 253 249 242 239 238
315 295 281 280 297 2 75 73 54 52 288 298 307 326 339 332 304 306 329 6 307 286 307 286 289 34 88 71 27 345 297 277 246 232 219 209 205 211 217 221 224 233 235 226 224 237 256 290 314 328 337 341 343 345 345 344 343 341 340 339 338 335 334 333 330 327 326 326 326 328 328 331 330 321 318 316 305 296 283 273 270 263 257 248 241 242
208 286 281 276 283 143 131 130 148 169 219 256 258 249 301 315 329 324 328 334 306 290 288 280 289 53 103 102 49 279 260 258 241 227 220 212 209 221 229 226 225 230 227 219 219 228 248 285 311 326 335 340 343 345 344 342 342 343 341 338 336 335 334 334 331 326 326 326 326 329 330 330 334 334 333 332 326 325 315 299 295 285 275 261 246 244
225 299 296 284 274 189 181 182 184 191 226 261 274 192 268 335 333 293 278 272 283 301 331 296 297 33 92 119 157 243 248 245 227 215 216 217 221 232 237 232 231 236 230 223 224 228 246 283 311 328 337 342 344 344 342 342 344 345 343 341 338 336 336 334 332 330 328 327 330 331 329 334 342 341 341 348 353 349 339 324 314 297 282 274 260 252
282 315 309 298 310 314 289 287 312 297 260 272 277 221 207 168 187 259 280 279 286 37 301 272 282 337 9 15 261 258 247 244 221 206 211 224 234 243 247 240 237 244 243 233 228 228 245 280 311 330 337 341 342 341 340 343 347 348 348 348 345 340 336 335 336 335 332 333 336 333 333 342 345 335 338 3 357 351 341 321 306 293 286 281 269 255
291 301 294 299 313 325 322 333 345 320 289 288 288 265 233 180 183 251 275 286 332 348 287 278 286 311 322 332 342 328 259 240 222 209 213 226 238 247 249 242 241 248 247 235 225 226 242 271 309 328 334 337 337 338 340 343 348 350 351 353 352 346 339 336 337 336 337 340 335 332 338 343 346 346 340 329 345 347 336 324 312 304 294 282 275 267
280 283 272 282 291 307 316 317 310 280 270 269 263 249 218 166 160 220 253 288 355 311 290 15 42 293 308 329 338 331 288 252 235 230 231 238 244 247 245 241 244 249 247 232 219 218 237 272 311 327 331 333 333 335 338 342 346 350 352 354 354 351 345 340 338 336 338 340 333 332 347 358 0 360 348 345 9 344 322 322 315 303 287 268 269 272
286 296 309 271 275 289 301 297 285 272 269 262 247 225 188 172 170 196 236 257 281 267 284 353 342 295 300 316 321 324 298 268 249 241 243 245 247 249 250 248 249 255 255 242 226 222 237 274 317 328 331 332 332 333 334 339 343 345 350 352 353 353 350 345 342 339 338 342 337 332 348 7 2 359 11 39 14 331 313 317 310 298 291 274 269 265
284 295 281 275 279 280 286 287 276 268 275 279 271 252 189 182 197 208 244 265 232 258 279 305 306 292 289 298 304 298 272 264 255 244 239 244 249 252 255 255 258 266 267 258 246 240 244 284 320 326 330 331 329 329 330 336 340 343 348 349 350 353 352 347 345 343 339 340 338 332 346 2 358 357 12 13 343 321 317 319 310 299 304 301 294 276
257 278 234 275 284 277 270 276 271 274 282 279 277 270 139 152 225 224 244 271 233 262 274 278 283 281 276 282 288 224 209 224 236 238 241 247 253 256 257 259 265 271 272 262 251 246 255 294 318 325 331 331 328 328 330 333 338 341 346 347 348 352 352 349 345 344 342 338 337 348 10 2 354 354 355 346 331 327 328 325 314 308 316 318 319 306
231 256 245 268 285 284 258 268 279 293 289 269 263 257 184 172 226 214 196 202 198 198 188 221 263 280 271 132 186 191 196 220 234 239 246 250 252 256 259 266 272 274 270 256 245 249 270 297 318 327 331 331 329 329 329 333 338 340 344 346 348 350 351 350 346 345 343 333 330 347 359 350 342 336 332 330 332 335 336 337 333 327 328 331 336 341
247 266 271 270 281 287 281 286 296 299 290 269 257 257 213 188 199 218 213 213 200 182 178 242 278 334 46 127 240 219 207 226 240 245 257 266 267 264 262 267 275 272 253 228 220 242 272 298 320 330 334 332 329 328 327 331 337 341 343 345 347 350 352 351 350 347 344 336 337 341 335 324 328 325 319 323 332 339 342 344 344 333 327 348 14 27
251 260 272 272 277 284 290 301 298 290 293 329 37 297 234 205 203 208 229 227 205 200 231 275 293 305 279 248 266 272 246 238 249 258 268 274 277 278 270 264 265 250 211 190 188 219 254 287 320 334 340 335 327 326 326 329 335 339 343 344 346 351 353 353 354 351 349 351 350 340 324 329 336 333 332 333 338 346 348 345 345 342 338 17 46 55
252 254 264 263 265 277 293 303 293 287 320 354 6 168 309 261 233 239 262 257 223 214 234 260 274 278 277 263 258 270 269 240 250 259 254 251 260 272 273 262 241 204 189 185 184 195 214 247 319 340 345 341 336 331 327 329 332 337 342 344 347 352 355 356 357 355 356 1 1 7 33 17 351 341 340 343 349 352 349 347 352 358 10 30 48 64
251 254 260 259 261 270 278 269 269 305 330 332 176 142 135 238 231 256 273 266 230 223 234 247 264 280 290 271 241 236 225 225 259 258 241 234 243 256 267 263 223 191 183 183 181 178 186 215 315 347 351 349 345 340 337 336 336 341 345 345 349 355 357 360 1 359 360 4 6 15 30 16 359 359 353 354 358 354 350 353 2 14 34 39 39 50
241 251 254 250 248 262 274 263 263 298 307 274 162 155 177 240 259 288 294 291 241 228 240 252 274 291 297 273 222 205 194 233 268 253 202 192 229 254 262 247 193 178 172 169 168 164 169 177 139 17 4 359 357 357 355 347 346 350 350 348 352 358 1 3 4 4 6 8 7 11 21 22 17 15 9 6 6 3 1 2 4 14 27 28 24 27
232 240 246 248 235 237 273 280 274 284 294 341 103 130 163 290 309 291 290 293 109 152 248 269 293 304 304 225 182 182 183 237 272 190 127 133 182 264 256 215 180 172 168 163 161 161 165 165 137 23 2 5 9 12 7 359 358 356 353 354 358 0 4 6 6 8 10 13 12 10 15 19 16 17 18 17 16 13 10 10 8 9 13 16 12 7
217 228 235 247 248 239 258 270 266 274 309 20 46 81 132 279 283 272 281 287 99 88 289 289 307 313 307 167 168 174 192 249 279 89 99 101 84 305 240 204 178 173 171 166 166 167 171 166 137 17 359 6 7 6 5 4 4 359 356 0 3 3 7 7 6 8 9 12 16 15 16 18 16 19 22 21 20 15 10 10 8 5 9 12 10 7
182 214 232 241 245 239 248 264 269 274 310 359 347 343 16 115 226 265 286 17 71 36 2 309 323 329 144 160 171 190 229 272 8 78 88 76 46 52 224 196 181 181 177 173 175 176 177 174 149 8 349 355 354 354 0 3 3 1 1 6 9 8 9 7 5 8 7 8 13 15 17 19 17 17 16 12 11 9 6 5 2 3 8 10 9 9
199 215 232 243 248 239 237 258 270 273 318 349 338 342 95 154 215 270 312 357 357 347 16 327 322 51 156 176 196 228 258 352 60 73 80 54 40 99 199 186 183 187 182 181 189 191 188 187 182 251 327 340 339 343 354 360 1 3 5 11 12 10 12 12 11 11 11 11 10 10 11 9 6 9 9 3 4 7 7 4 2 4 7 6 6 7
243 234 223 233 249 246 236 253 267 272 341 354 333 241 173 207 249 319 335 332 327 327 315 238 256 171 178 195 221 258 301 101 128 173 158 155 82 147 175 178 182 185 184 192 203 199 189 192 200 237 304 324 331 337 346 354 0 3 4 10 14 12 17 24 23 22 21 19 16 13 10 4 3 7 5 4 10 14 15 13 11 12 15 14 13 11
261 261 246 222 219 242 239 236 251 272 88 179 213 177 185 233 332 349 326 312 320 321 299 282 266 211 202 210 226 241 235 181 203 213 200 211 219 181 175 182 186 189 191 197 205 198 191 207 230 253 276 299 324 334 336 344 356 0 1 6 14 18 26 34 34 31 30 30 30 26 18 13 16 19 19 22 26 25 23 25 25 23 24 28 30 29
242 254 269 258 188 234 247 225 222 13 47 200 227 237 264 287 315 324 312 302 303 300 287 287 284 234 214 224 230 230 233 229 227 231 229 219 207 193 187 187 191 195 192 191 196 196 198 218 239 253 262 277 304 320 323 329 343 351 356 1 16 28 33 38 36 31 31 35 38 39 34 28 28 33 34 31 31 31 31 33 35 34 32 35 40 41
269 318 304 287 248 263 279 283 307 332 331 278 259 279 295 297 300 307 305 294 286 284 279 284 287 250 221 225 228 227 235 236 232 238 237 222 208 203 197 192 195 199 195 191 195 197 201 219 239 252 261 267 278 298 308 307 318 340 347 352 31 44 39 40 37 31 29 32 38 44 47 41 36 38 41 36 29 30 33 35 36 38 38 40 44 47
272 317 290 280 288 292 276 267 276 289 290 281 273 277 288 292 293 300 303 291 281 277 273 275 279 260 230 221 220 226 234 233 231 235 233 223 215 207 200 197 199 200 198 197 199 201 203 220 240 247 256 267 273 286 292 281 281 315 330 330 136 84 43 40 35 27 22 23 30 38 45 48 45 40 38 38 33 30 32 35 38 41 44 43 42 43
187 206 256 266 280 295 269 242 245 265 270 274 278 278 278 280 281 287 301 304 298 282 267 264 267 256 232 218 217 225 228 225 225 225 219 216 214 208 205 204 203 204 205 205 207 209 208 217 236 241 247 262 270 274 271 255 244 261 292 282 188 188 32 30 28 19 10 10 22 28 29 39 50 47 36 36 39 36 34 35 37 43 50 53 51 48
144 155 266 270 261 270 279 274 268 268 266 266 269 269 269 274 277 286 304 313 312 294 268 253 246 239 230 222 220 220 220 219 219 220 217 216 217 215 211 208 208 210 210 209 215 217 212 216 228 234 236 247 257 260 251 231 223 232 246 234 196 195 221 318 1 9 0 359 14 19 16 26 40 44 36 34 40 44 46 47 42 40 46 53 56 57
277 226 270 281 278 273 275 276 276 275 269 262 257 256 269 281 283 290 302 308 307 303 283 255 238 231 228 226 220 216 216 215 213 216 218 217 218 219 215 211 212 213 212 215 222 223 217 218 223 225 228 235 239 236 229 220 219 223 227 226 204 193 210 257 306 346 351 357 10 11 8 13 23 33 36 35 37 40 46 56 60 51 45 48 52 56
262 259 269 273 270 267 274 287 294 294 284 279 276 275 282 288 284 288 302 305 300 300 292 257 235 228 227 225 219 214 215 215 210 209 214 219 222 221 216 212 212 215 215 217 221 223 221 220 221 221 222 225 226 224 220 217 217 217 215 221 214 201 211 235 258 289 325 357 6 5 13 13 12 22 32 35 37 30 31 41 50 53 51 49 49 53
253 266 277 276 275 280 289 296 298 295 287 286 289 287 288 291 288 288 299 303 299 298 291 257 230 225 226 227 222 216 214 212 206 203 207 218 220 216 215 213 213 215 218 218 220 221 220 220 221 221 220 220 220 220 217 213 213 215 213 216 217 212 215 229 244 255 277 313 330 358 20 22 6 15 27 30 38 40 21 18 28 38 45 47 46 45
Height
1511 1510 1510 1510 1510 1510 1511 1512 1511 1512 1514 1513 1513 1513 1512 1514 1514 1514 1517 1520 1519 1520 1520 1520 1521 1522 1524 1526 1528 1532 1534 1535 1538 1539 1541 1542 1544 1545 1547 1548 1550 1552 1553 1554 1554 1554 1553 1553 1552 1552 1551 1550 1549 1548 1546 1544 1543 1541 1539 1537 1535 1533 1530 1528 1525 1523 1521 1520 1518 1517 1515 1513 1511 1510 1510 1509 1510 1511 1513 1515 1518 1521 1525 1528 1530 1533
1512 1511 1512 1512 1513 1514 1515 1516 1515 1515 1516 1515 1513 1513 1513 1513 1514 1515 1519 1520 1520 1521 1522 1521 1521 1522 1523 1525 1528 1531 1533 1535 1537 1539 1540 1541 1543 1545 1546 1548 1550 1552 1553 1554 1554 1554 1553 1553 1552 1552 1551 1550 1549 1547 1546 1544 1542 1541 1539 1537 1535 1533 1531 1529 1526 1524 1522 1519 1518 1516 1514 1512 1511 1510 1509 1508 1508 1509 1511 1514 1517 1520 1523 1525 1528 1531
1513 1514 1516 1516 1516 1517 1517 1516 1516 1517 1516 1515 1514 1514 1514 1513 1514 1516 1518 1520 1520 1522 1523 1522 1522 1523 1524 1525 1528 1531 1532 1534 1536 1538 1539 1541 1542 1544 1546 1548 1550 1552 1553 1554 1555 1554 1553 1553 1552 1551 1550 1549 1549 1547 1545 1544 1542 1540 1538 1536 1535 1533 1531 1529 1526 1524 1521 1519 1517 1516 1514 1512 1511 1509 1508 1507 1507 1508 1511 1513 1516 1519 1521 1523 1526 1529
1515 1517 1518 1519 1518 1517 1517 1518 1517 1516 1515 1515 1515 1516 1514 1513 1517 1519 1519 1520 1520 1521 1522 1521 1523 1525 1526 1527 1529 1530 1532 1534 1537 1539 1539 1541 1542 1544 1546 1547 1549 1551 1552 1553 1554 1554 1553 1552 1552 1551 1550 1549 1548 1547 1545 1543 1541 1539 1538 1536 1534 1533 1531 1529 1527 1524 1521 1519 1517 1515 1514 1512 1511 1509 1507 1507 1506 1507 1510 1512 1514 1517 1519 1522 1525 1527
1516 1520 1520 1520 1519 1516 1517 1518 1517 1516 1513 1513 1517 1519 1515 1515 1518 1519 1519 1521 1520 1521 1521 1521 1527 1527 1525 1528 1529 1529 1532 1534 1537 1538 1539 1541 1542 1544 1545 1547 1549 1550 1551 1552 1553 1553 1553 1552 1551 1550 1549 1549 1548 1547 1545 1542 1541 1539 1537 1535 1534 1532 1530 1528 1527 1524 1521 1519 1517 1515 1514 1512 1511 1510 1508 1507 1507 1507 1508 1511 1514 1516 1518 1521 1524 1526
1518 1522 1522 1520 1518 1516 1517 1517 1519 1521 1516 1513 1517 1521 1520 1520 1520 1519 1520 1521 1521 1524 1521 1523 1534 1530 1521 1525 1526 1527 1531 1534 1536 1537 1538 1540 1542 1544 1545 1547 1548 1549 1550 1551 1552 1552 1552 1552 1551 1550 1549 1548 1548 1546 1545 1542 1540 1539 1537 1535 1533 1532 1530 1528 1526 1524 1522 1520 1518 1515 1514 1512 1511 1510 1509 1508 1508 1507 1507 1510 1513 1515 1518 1520 1523 1525
1520 1523 1522 1519 1518 1518 1518 1519 1522 1523 1519 1517 1520 1522 1523 1522 1521 1520 1520 1522 1522 1523 1521 1524 1531 1528 1522 1523 1523 1524 1529 1532 1535 1536 1538 1540 1541 1542 1544 1546 1547 1549 1550 1551 1551 1552 1552 1551 1550 1549 1549 1548 1547 1546 1544 1542 1540 1538 1536 1534 1533 1532 1530 1528 1526 1524 1522 1520 1519 1517 1515 1513 1511 1510 1510 1509 1509 1508 1507 1509 1512 1514 1517 1520 1522 1524
1521 1522 1522 1519 1519 1518 1517 1521 1525 1524 1520 1520 1522 1524 1523 1522 1522 1520 1519 1520 1518 1520 1525 1523 1526 1529 1526 1521 1520 1523 1527 1531 1535 1536 1538 1541 1540 1540 1543 1545 1546 1548 1549 1550 1551 1551 1551 1551 1549 1549 1548 1547 1547 1545 1543 1542 1539 1537 1536 1534 1533 1531 1530 1528 1526 1524 1522 1520 1519 1518 1516 1514 1512 1511 1510 1510 1510 1509 1508 1509 1511 1513 1516 1519 1522 1523
1522 1522 1523 1522 1520 1518 1519 1524 1526 1525 1523 1522 1524 1524 1523 1522 1521 1519 1518 1517 1515 1522 1526 1519 1524 1534 1528 1520 1521 1524 1525 1529 1532 1533 1535 1538 1539 1539 1542 1544 1545 1547 1548 1549 1550 1550 1550 1550 1549 1548 1548 1547 1546 1545 1543 1541 1539 1537 1535 1534 1533 1531 1530 1527 1525 1524 1522 1520 1519 1518 1517 1515 1514 1512 1510 1510 1510 1510 1510 1510 1510 1511 1514 1517 1520 1522
1524 1525 1525 1523 1521 1520 1524 1527 1527 1527 1525 1524 1526 1524 1523 1522 1519 1519 1518 1514 1516 1529 1527 1517 1527 1537 1526 1519 1523 1526 1525 1523 1524 1528 1532 1535 1536 1537 1540 1543 1544 1546 1547 1548 1549 1550 1549 1549 1548 1548 1547 1547 1546 1544 1543 1541 1538 1537 1535 1533 1532 1530 1529 1527 1525 1523 1522 1520 1519 1518 1517 1515 1514 1513 1511 1510 1510 1510 1510 1509 1508 1510 1513 1515 1518 1521
1525 1527 1526 1526 1526 1525 1527 1528 1528 1529 1527 1526 1526 1522 1520 1520 1518 1519 1517 1516 1523 1529 1524 1521 1531 1537 1531 1522 1520 1524 1526 1522 1521 1525 1529 1532 1534 1536 1539 1541 1543 1545 1546 1547 1548 1549 1549 1548 1547 1547 1547 1546 1545 1544 1542 1540 1538 1536 1534 1532 1531 1530 1528 1526 1525 1523 1521 1520 1519 1518 1517 1516 1515 1513 1512 1510 1510 1509 1509 1509 1509 1509 1511 1513 1516 1519
1524 1525 1526 1528 1530 1528 1527 1527 1527 1528 1527 1526 1522 1519 1521 1520 1519 1521 1519 1524 1532 1528 1523 1525 1529 1535 1536 1527 1520 1523 1526 1524 1525 1526 1528 1531 1533 1536 1539 1540 1542 1544 1545 1546 1548 1548 1548 1548 1547 1546 1546 1545 1544 1543 1541 1539 1537 1535 1533 1532 1530 1529 1527 1525 1524 1522 1521 1520 1519 1518 1517 1516 1515 1514 1513 1511 1510 1509 1509 1509 1510 1510 1511 1513 1515 1518
1522 1523 1526 1528 1530 1529 1527 1524 1522 1522 1521 1520 1516 1518 1525 1521 1522 1528 1524 1525 1528 1523 1523 1526 1529 1534 1531 1524 1521 1524 1525 1525 1527 1528 1529 1531 1533 1536 1538 1540 1542 1544 1545 1546 1547 1547 1547 1547 1546 1546 1545 1545 1543 1542 1540 1538 1536 1534 1533 1531 1529 1528 1526 1524 1522 1521 1521 1519 1518 1517 1516 1516 1515 1514 1514 1512 1510 1510 1509 1509 1510 1511 1512 1513 1515 1517
1524 1524 1524 1527 1529 1528 1528 1524 1522 1521 1519 1519 1518 1522 1527 1525 1533 1539 1529 1524 1524 1522 1524 1527 1530 1531 1525 1522 1523 1523 1524 1526 1528 1529 1530 1531 1534 1536 1539 1541 1542 1543 1544 1545 1545 1546 1546 1546 1546 1545 1545 1544 1542 1541 1539 1537 1536 1534 1532 1530 1529 1527 1525 1523 1521 1520 1520 1519 1518 1517 1516 1516 1515 1514 1514 1513 1511 1510 1510 1510 1510 1511 1512 1513 1515 1517
1529 1530 1527 1527 1528 1528 1528 1528 1528 1527 1523 1523 1524 1524 1525 1526 1536 1539 1529 1525 1525 1521 1522 1529 1532 1528 1526 1528 1525 1523 1526 1527 1528 1530 1531 1533 1535 1537 1539 1540 1542 1542 1543 1544 1545 1545 1546 1545 1545 1545 1544 1543 1541 1540 1538 1537 1535 1533 1532 1530 1528 1526 1524 1522 1521 1519 1519 1518 1517 1516 1516 1515 1515 1514 1514 1513 1512 1511 1511 1511 1511 1512 1512 1513 1515 1516
1530 1531 1528 1529 1530 1529 1530 1530 1531 1530 1527 1525 1523 1522 1524 1524 1529 1534 1533 1533 1533 1527 1523 1527 1527 1521 1522 1526 1523 1524 1528 1527 1529 1530 1532 1535 1536 1537 1539 1540 1541 1542 1542 1543 1544 1545 1545 1545 1544 1544 1543 1542 1541 1539 1538 1536 1535 1533 1531 1529 1527 1526 1524 1522 1520 1519 1518 1517 1517 1516 1515 1515 1514 1514 1513 1513 1513 1512 1511 1511 1511 1511 1512 1512 1513 1514
1530 1529 1528 1530 1531 1530 1532 1531 1531 1532 1531 1527 1522 1524 1527 1527 1527 1532 1536 1538 1539 1536 1527 1524 1523 1516 1516 1522 1523 1525 1527 1526 1529 1530 1531 1534 1536 1537 1539 1539 1540 1541 1541 1542 1543 1544 1544 1544 1544 1543 1542 1541 1540 1539 1537 1535 1534 1532 1531 1529 1527 1525 1523 1522 1520 1519 1518 1516 1516 1515 1514 1514 1513 1513 1513 1512 1512 1511 1511 1511 1511 1511 1511 1511 1512 1512
1532 1530 1528 1530 1531 1532 1534 1533 1532 1533 1532 1527 1525 1528 1529 1530 1529 1530 1535 1536 1534 1532 1527 1525 1527 1520 1518 1524 1525 1524 1525 1526 1527 1529 1531 1533 1535 1537 1537 1538 1540 1540 1541 1542 1542 1543 1543 1543 1543 1542 1541 1541 1539 1538 1536 1535 1533 1532 1530 1528 1526 1525 1523 1521 1520 1518 1517 1516 1515 1514 1513 1513 1512 1512 1512 1511 1511 1511 1510 1511 1511 1511 1510 1510 1510 1511
1533 1531 1529 1528 1530 1532 1532 1533 1533 1532 1531 1529 1530 1531 1531 1533 1532 1529 1534 1537 1534 1532 1529 1528 1528 1520 1518 1523 1524 1522 1524 1525 1526 1527 1529 1530 1532 1534 1535 1537 1539 1540 1541 1542 1542 1543 1543 1542 1542 1541 1541 1540 1538 1537 1535 1534 1533 1531 1530 1528 1526 1524 1522 1521 1519 1518 1516 1515 1514 1513 1512 1511 1511 1511 1510 1510 1510 1510 1509 1510 1510 1510 1509 1509 1509 1510
1533 1534 1531 1528 1529 1531 1530 1530 1531 1530 1530 1530 1529 1529 1529 1532 1532 1529 1531 1533 1533 1533 1531 1531 1527 1516 1516 1520 1520 1520 1521 1522 1525 1526 1526 1528 1531 1532 1534 1535 1537 1539 1540 1541 1541 1542 1542 1542 1541 1540 1540 1539 1537 1536 1534 1533 1532 1530 1529 1527 1525 1523 1521 1520 1519 1517 1516 1514 1513 1512 1511 1510 1509 1509 1509 1508 1508 1508 1508 1508 1508 1508 1508 1508 1508 1509
1532 1535 1533 1528 1529 1532 1530 1529 1528 1528 1530 1530 1528 1528 1528 1531 1533 1532 1530 1529 1533 1534 1532 1535 1529 1515 1516 1521 1518 1519 1520 1520 1523 1525 1525 1528 1529 1531 1533 1535 1536 1538 1539 1540 1540 1541 1541 1541 1540 1540 1539 1538 1537 1535 1534 1533 1531 1530 1528 1526 1524 1523 1521 1519 1518 1517 1515 1514 1513 1511 1510 1509 1508 1507 1507 1507 1507 1506 1506 1506 1506 1506 1506 1507 1507 1508
1532 1533 1532 1528 1527 1529 1529 1530 1531 1532 1533 1531 1529 1528 1528 1531 1533 1533 1531 1530 1533 1534 1534 1538 1534 1520 1518 1522 1520 1521 1521 1520 1521 1523 1525 1527 1528 1531 1533 1534 1536 1537 1538 1539 1539 1540 1540 1540 1540 1539 1538 1537 1536 1535 1533 1532 1530 1529 1527 1525 1524 1522 1520 1518 1517 1516 1515 1513 1512 1511 1510 1508 1507 1506 1506 1506 1505 1505 1505 1505 1505 1505 1505 1505 1506 1507
1534 1532 1531 1528 1526 1527 1530 1532 1534 1534 1535 1534 1532 1530 1530 1532 1533 1533 1533 1532 1531 1532 1532 1535 1533 1523 1519 1522 1523 1523 1523 1522 1522 1523 1524 1526 1528 1530 1532 1533 1535 1536 1537 1538 1538 1539 1539 1539 1539 1538 1537 1537 1536 1534 1532 1531 1529 1528 1526 1525 1523 1521 1519 1518 1516 1515 1514 1513 1512 1510 1509 1508 1507 1506 1505 1504 1505 1504 1504 1504 1504 1503 1503 1504 1505 1506
1536 1533 1531 1529 1526 1527 1530 1532 1533 1534 1535 1534 1532 1531 1532 1534 1534 1534 1534 1533 1532 1531 1530 1533 1531 1522 1520 1523 1523 1524 1525 1524 1524 1524 1525 1526 1528 1530 1531 1533 1534 1535 1536 1537 1537 1538 1538 1538 1538 1538 1537 1536 1535 1533 1532 1530 1529 1527 1526 1524 1522 1520 1518 1517 1515 1514 1513 1512 1511 1510 1509 1508 1507 1506 1505 1504 1504 1504 1504 1503 1503 1502 1503 1503 1503 1504
1535 1532 1532 1532 1530 1531 1533 1535 1536 1536 1535 1531 1530 1532 1535 1536 1539 1538 1534 1534 1533 1529 1531 1537 1531 1518 1517 1523 1522 1523 1525 1524 1524 1526 1526 1527 1528 1529 1530 1532 1533 1535 1535 1536 1536 1537 1537 1537 1537 1537 1536 1535 1534 1533 1531 1530 1529 1527 1525 1524 1521 1519 1518 1516 1515 1513 1512 1511 1510 1509 1508 1507 1506 1506 1505 1504 1504 1503 1503 1503 1502 1502 1502 1502 1502 1503
1534 1531 1532 1535 1535 1537 1538 1536 1536 1535 1533 1530 1530 1534 1536 1538 1542 1540 1534 1533 1533 1531 1533 1535 1527 1517 1515 1519 1520 1522 1523 1523 1524 1525 1526 1527 1528 1529 1530 1531 1532 1533 1534 1535 1535 1536 1536 1536 1536 1536 1535 1534 1533 1532 1531 1530 1528 1527 1525 1523 1521 1519 1517 1515 1514 1512 1511 1510 1509 1508 1507 1506 1506 1505 1505 1505 1504 1504 1503 1503 1502 1502 1502 1501 1501 1501
1533 1532 1532 1533 1534 1535 1535 1532 1530 1532 1533 1533 1534 1535 1535 1538 1542 1542 1537 1532 1532 1533 1529 1524 1523 1524 1521 1517 1518 1521 1522 1523 1523 1524 1526 1527 1527 1528 1529 1530 1531 1532 1533 1533 1534 1535 1535 1535 1535 1535 1535 1534 1533 1532 1530 1529 1528 1526 1525 1523 1521 1519 1517 1515 1513 1512 1511 1509 1508 1507 1506 1505 1505 1504 1504 1504 1504 1504 1503 1503 1502 1502 1502 1501 1500 1500
1533 1533 1533 1534 1534 1532 1531 1530 1529 1531 1534 1536 1537 1537 1537 1540 1545 1545 1539 1535 1535 1535 1529 1522 1525 1529 1524 1517 1518 1520 1520 1522 1522 1523 1524 1525 1526 1527 1528 1529 1530 1531 1531 1532 1533 1533 1534 1534 1534 1534 1534 1533 1532 1531 1530 1529 1528 1526 1525 1523 1521 1519 1517 1515 1513 1512 1510 1509 1508 1507 1505 1505 1505 1504 1504 1504 1504 1504 1503 1503 1502 1501 1501 1500 1499 1499
1533 1533 1532 1534 1534 1532 1530 1529 1529 1530 1531 1532 1534 1536 1539 1543 1545 1544 1539 1536 1537 1536 1530 1527 1529 1529 1523 1518 1517 1519 1520 1521 1522 1522 1524 1524 1525 1526 1527 1528 1529 1529 1530 1531 1532 1533 1533 1533 1534 1533 1533 1532 1531 1530 1530 1528 1527 1526 1524 1523 1521 1519 1517 1515 1513 1511 1510 1508 1507 1506 1505 1505 1504 1504 1504 1503 1503 1504 1503 1502 1502 1501 1500 1499 1498 1498
1532 1532 1532 1533 1534 1531 1529 1529 1528 1528 1529 1529 1529 1530 1536 1542 1543 1543 1540 1538 1541 1539 1534 1532 1532 1529 1522 1517 1517 1519 1520 1521 1522 1523 1524 1524 1525 1525 1525 1526 1527 1527 1528 1529 1530 1532 1532 1533 1533 1532 1531 1531 1530 1530 1529 1528 1527 1525 1524 1523 1521 1519 1517 1515 1513 1511 1510 1508 1506 1506 1505 1505 1504 1504 1503 1503 1503 1503 1502 1502 1501 1500 1499 1498 1497 1496
1534 1533 1531 1533 1533 1529 1528 1528 1528 1528 1528 1529 1528 1529 1538 1545 1545 1546 1546 1544 1544 1542 1538 1538 1538 1529 1518 1515 1517 1519 1520 1522 1522 1522 1523 1523 1523 1524 1524 1525 1525 1525 1526 1528 1529 1531 1531 1532 1531 1531 1530 1530 1530 1529 1528 1527 1526 1525 1524 1523 1521 1519 1517 1515 1513 1511 1510 1508 1507 1505 1505 1505 1504 1504 1503 1503 1503 1503 1502 1501 1500 1499 1498 1497 1496 1495
1532 1532 1530 1532 1535 1530 1525 1527 1528 1526 1526 1528 1529 1531 1537 1542 1541 1540 1542 1541 1539 1538 1538 1539 1533 1520 1513 1514 1517 1518 1519 1520 1520 1520 1521 1522 1522 1523 1523 1523 1523 1524 1525 1527 1528 1530 1530 1530 1530 1530 1530 1529 1529 1528 1527 1527 1526 1525 1523 1522 1520 1519 1517 1515 1513 1511 1510 1509 1507 1506 1505 1505 1504 1504 1504 1504 1503 1502 1501 1500 1499 1499 1498 1497 1495 1494
1528 1530 1529 1532 1536 1530 1524 1526 1527 1525 1527 1528 1526 1525 1528 1533 1535 1535 1535 1535 1534 1533 1533 1527 1518 1511 1512 1515 1515 1516 1517 1518 1518 1519 1520 1520 1521 1522 1522 1522 1522 1523 1525 1526 1527 1528 1529 1529 1530 1530 1529 1529 1528 1527 1527 1526 1525 1524 1523 1521 1520 1519 1517 1515 1513 1511 1510 1508 1507 1506 1505 1504 1504 1504 1504 1504 1503 1501 1501 1500 1499 1498 1496 1496 1495 1494
1527 1529 1528 1529 1534 1530 1523 1523 1526 1529 1530 1526 1519 1517 1519 1523 1527 1529 1528 1527 1527 1526 1522 1515 1511 1511 1514 1514 1514 1514 1515 1516 1517 1518 1519 1519 1520 1520 1521 1522 1522 1523 1525 1526 1526 1527 1528 1529 1529 1529 1528 1528 1527 1527 1526 1525 1525 1524 1522 1521 1520 1518 1517 1515 1513 1511 1509 1508 1507 1506 1505 1504 1504 1504 1504 1503 1502 1502 1501 1499 1498 1496 1496 1495 1495 1494
1526 1528 1528 1528 1531 1529 1522 1526 1535 1534 1525 1518 1516 1517 1518 1519 1520 1521 1519 1516 1517 1519 1517 1514 1512 1510 1511 1512 1513 1514 1515 1517 1518 1518 1519 1520 1520 1520 1520 1521 1522 1523 1524 1525 1526 1526 1527 1528 1528 1528 1528 1527 1527 1526 1525 1525 1524 1523 1522 1521 1519 1518 1517 1515 1513 1511 1509 1508 1507 1506 1505 1505 1504 1504 1503 1502 1502 1502 1501 1499 1497 1496 1495 1495 1495 1494
1525 1527 1527 1527 1528 1527 1525 1533 1539 1529 1514 1512 1516 1518 1519 1519 1519 1520 1517 1511 1510 1513 1514 1512 1510 1508 1509 1511 1513 1514 1516 1517 1517 1517 1517 1519 1519 1520 1520 1520 1521 1522 1523 1524 1525 1526 1526 1527 1527 1528 1527 1527 1526 1525 1525 1524 1523 1522 1521 1520 1519 1518 1517 1515 1514 1512 1510 1509 1507 1506 1505 1505 1504 1504 1503 1502 1502 1502 1500 1498 1497 1496 1495 1495 1494 1494
1523 1524 1525 1527 1528 1527 1527 1528 1526 1520 1514 1513 1514 1515 1516 1516 1516 1517 1516 1509 1505 1508 1510 1510 1508 1507 1508 1511 1512 1514 1516 1516 1515 1513 1513 1517 1518 1519 1519 1520 1521 1522 1522 1523 1524 1525 1525 1526 1526 1527 1526 1526 1525 1525 1524 1524 1523 1522 1521 1520 1519 1518 1517 1515 1514 1512 1510 1509 1508 1506 1505 1505 1505 1504 1504 1503 1502 1501 1500 1499 1498 1496 1495 1495 1494 1494
1521 1522 1523 1526 1527 1526 1528 1527 1524 1526 1523 1514 1510 1511 1513 1513 1513 1513 1514 1509 1504 1506 1508 1508 1507 1506 1508 1510 1512 1513 1515 1515 1511 1508 1511 1515 1517 1518 1519 1519 1520 1521 1522 1522 1523 1524 1524 1525 1525 1526 1526 1525 1525 1524 1524 1523 1522 1521 1520 1519 1519 1518 1517 1515 1514 1512 1511 1510 1508 1507 1506 1505 1505 1505 1504 1503 1502 1501 1500 1499 1499 1497 1496 1496 1495 1494
1521 1520 1520 1524 1526 1525 1528 1529 1527 1527 1522 1513 1511 1513 1513 1514 1514 1513 1514 1511 1505 1505 1508 1507 1507 1507 1508 1510 1512 1512 1513 1512 1507 1507 1512 1515 1516 1517 1518 1518 1519 1520 1521 1522 1522 1523 1524 1524 1524 1525 1525 1525 1524 1524 1523 1522 1522 1521 1520 1519 1518 1517 1516 1516 1514 1513 1512 1510 1509 1508 1507 1506 1505 1504 1504 1503 1502 1501 1500 1500 1499 1498 1497 1497 1496 1495
1522 1521 1521 1523 1524 1523 1526 1526 1521 1518 1515 1513 1513 1513 1514 1515 1514 1517 1520 1514 1506 1505 1508 1507 1507 1508 1508 1510 1511 1511 1510 1509 1507 1509 1513 1514 1515 1517 1517 1518 1519 1519 1520 1521 1521 1522 1523 1523 1523 1524 1524 1524 1524 1523 1523 1522 1521 1521 1520 1519 1518 1517 1517 1516 1514 1513 1512 1511 1510 1509 1507 1506 1505 1504 1504 1503 1502 1502 1501 1500 1499 1498 1498 1498 1497 1495
1521 1522 1521 1521 1519 1519 1524 1527 1523 1516 1514 1513 1514 1514 1515 1515 1517 1521 1521 1512 1505 1506 1508 1507 1508 1508 1509 1510 1510 1508 1508 1509 1510 1512 1514 1514 1516 1516 1516 1517 1518 1519 1520 1520 1520 1521 1522 1522 1523 1523 1523 1523 1523 1522 1522 1522 1521 1520 1519 1518 1518 1517 1516 1516 1515 1514 1513 1512 1511 1509 1508 1507 1506 1505 1504 1503 1502 1502 1502 1501 1499 1498 1498 1498 1497 1496
1520 1520 1519 1519 1519 1518 1520 1526 1527 1521 1516 1516 1517 1517 1516 1516 1518 1518 1514 1508 1507 1508 1507 1507 1508 1507 1508 1510 1509 1509 1509 1510 1512 1513 1514 1515 1516 1516 1516 1517 1518 1518 1519 1519 1519 1520 1521 1522 1522 1522 1522 1522 1522 1522 1522 1521 1520 1520 1519 1518 1518 1517 1516 1516 1515 1514 1513 1512 1511 1510 1509 1507 1506 1505 1505 1504 1503 1503 1502 1501 1500 1499 1498 1498 1498 1497
1519 1520 1518 1516 1519 1520 1521 1527 1530 1524 1517 1516 1517 1516 1516 1515 1514 1513 1510 1509 1509 1508 1507 1508 1508 1507 1508 1508 1509 1509 1510 1511 1512 1513 1513 1514 1515 1515 1516 1516 1517 1518 1518 1518 1519 1519 1520 1521 1521 1522 1522 1522 1521 1521 1521 1521 1520 1520 1519 1518 1518 1517 1517 1516 1515 1515 1514 1512 1511 1511 1509 1508 1507 1506 1505 1504 1504 1504 1503 1502 1501 1500 1499 1498 1498 1497
1516 1518 1517 1514 1516 1519 1520 1520 1520 1517 1514 1515 1515 1513 1513 1512 1511 1511 1511 1509 1508 1508 1508 1508 1507 1507 1507 1507 1508 1509 1509 1510 1512 1512 1513 1514 1514 1514 1515 1515 1516 1517 1517 1518 1519 1519 1520 1521 1521 1521 1521 1521 1521 1521 1520 1520 1520 1519 1519 1518 1518 1517 1517 1516 1516 1515 1514 1512 1512 1511 1510 1509 1508 1507 1506 1506 1505 1504 1503 1502 1501 1501 1500 1499 1498 1498
1514 1516 1517 1516 1514 1515 1514 1511 1509 1510 1512 1513 1513 1511 1511 1512 1511 1511 1510 1509 1508 1508 1507 1506 1506 1507 1507 1506 1507 1508 1508 1509 1510 1511 1512 1513 1513 1513 1514 1515 1515 1516 1517 1517 1518 1518 1519 1520 1520 1520 1520 1520 1520 1520 1520 1520 1519 1519 1519 1518 1518 1518 1517 1517 1516 1516 1514 1513 1512 1511 1511 1510 1509 1508 1507 1507 1506 1504 1503 1502 1502 1501 1500 1499 1499 1499
1514 1517 1517 1515 1513 1512 1511 1509 1508 1510 1510 1510 1511 1511 1510 1511 1510 1509 1509 1508 1507 1506 1505 1505 1506 1506 1506 1506 1506 1506 1507 1508 1509 1510 1510 1511 1512 1513 1513 1514 1515 1515 1516 1516 1517 1517 1518 1519 1519 1519 1519 1519 1519 1519 1519 1519 1519 1518 1518 1518 1517 1517 1517 1517 1516 1516 1515 1514 1513 1512 1511 1510 1509 1509 1508 1507 1506 1505 1504 1503 1502 1501 1500 1500 1499 1499
1513 1517 1516 1514 1514 1514 1512 1508 1507 1509 1509 1508 1509 1509 1508 1508 1508 1508 1507 1506 1505 1504 1504 1504 1504 1504 1505 1505 1504 1505 1506 1506 1507 1508 1509 1510 1511 1511 1512 1513 1513 1514 1515 1515 1516 1516 1517 1518 1518 1518 1518 1519 1518 1518 1518 1518 1518 1518 1518 1517 1517 1517 1517 1517 1516 1516 1515 1514 1513 1512 1512 1510 1510 1509 1509 1508 1507 1507 1506 1505 1504 1502 1501 1500 1499 1499
1513 1517 1515 1512 1512 1512 1509 1505 1505 1507 1507 1507 1507 1506 1506 1506 1506 1505 1505 1504 1503 1503 1502 1502 1502 1503 1503 1503 1503 1504 1504 1505 1506 1507 1508 1509 1510 1510 1511 1512 1512 1513 1514 1514 1515 1515 1516 1517 1517 1517 1518 1518 1518 1518 1517 1517 1517 1517 1517 1516 1517 1517 1517 1516 1516 1515 1515 1514 1514 1513 1512 1511 1510 1510 1510 1509 1508 1507 1506 1505 1504 1503 1502 1500 1499 1499
1515 1517 1513 1510 1510 1509 1505 1503 1502 1503 1503 1503 1503 1504 1504 1504 1504 1504 1503 1502 1501 1501 1500 1500 1500 1501 1501 1502 1502 1502 1503 1504 1504 1505 1506 1507 1508 1509 1509 1510 1511 1512 1512 1513 1513 1514 1515 1515 1516 1516 1517 1517 1517 1517 1516 1516 1516 1516 1516 1516 1516 1516 1516 1516 1515 1515 1515 1514 1514 1513 1513 1512 1511 1511 1510 1510 1509 1508 1506 1505 1505 1504 1503 1502 1501 1499
1515 1513 1509 1508 1508 1506 1502 1501 1501 1503 1502 1500 1501 1502 1503 1503 1502 1502 1501 1500 1499 1498 1497 1497 1498 1499 1499 1500 1500 1501 1502 1502 1503 1504 1505 1506 1506 1507 1508 1509 1510 1510 1511 1512 1512 1512 1513 1514 1515 1515 1516 1516 1516 1516 1516 1516 1516 1515 1515 1515 1515 1515 1515 1515 1515 1515 1515 1514 1514 1513 1513 1513 1512 1511 1511 1510 1510 1509 1508 1506 1505 1505 1504 1503 1502 1500
1511 1510 1507 1506 1505 1502 1501 1501 1502 1503 1502 1500 1501 1501 1501 1501 1501 1500 1499 1498 1497 1496 1495 1495 1496 1496 1497 1498 1499 1499 1500 1501 1501 1502 1503 1504 1505 1506 1507 1507 1508 1509 1509 1510 1510 1511 1512 1513 1513 1514 1514 1514 1515 1515 1515 1515 1515 1515 1515 1515 1514 1514 1514 1514 1514 1515 1514 1514 1514 1513 1512 1513 1512 1512 1511 1511 1510 1510 1509 1508 1507 1505 1504 1504 1502 1501